| time (UTC) | temp C | wind direction | speed KPH | gust KPH | rain 1hr cm | rain 24hr cm | rain mn cm | humidity % | barometer mb |
| 20260905063011 | 11 | 87 | 0.0 | 0.0 | 0.00 | 0.00 | 0.00 | 1 | 1012.7 |
| 20260905061507 | 11 | 87 | 0.0 | 0.0 | 0.00 | 0.00 | 0.00 | 1 | 1012.6 |
| 20260905060003 | 11 | 87 | 0.0 | 0.0 | 0.00 | 0.00 | 0.00 | 1 | 1012.7 |
| 20260905054559 | 12 | 87 | 0.0 | 1.6 | 0.00 | 0.00 | 0.00 | 2 | 1012.7 |
| 20260905053054 | 12 | 87 | 0.0 | 0.0 | 0.00 | 0.00 | 0.00 | 4 | 1012.6 |
| 20260905051550 | 12 | 87 | 0.0 | 0.0 | 0.00 | 0.00 | 0.00 | 7 | 1012.6 |
| 20260905050045 | 12 | 87 | 0.0 | 0.0 | 0.00 | 0.00 | 0.00 | 11 | 1012.5 |
| 20260905044540 | 12 | 87 | 0.0 | 0.0 | 0.00 | 0.00 | 0.00 | 9 | 1012.7 |
| 20260905043035 | 12 | 87 | 0.0 | 0.0 | 0.00 | 0.00 | 0.00 | 13 | 1012.7 |
| 20260905041531 | 13 | 87 | 0.0 | 0.0 | 0.00 | 0.00 | 0.00 | 15 | 1012.6 |
| 20260905040031 | 13 | 87 | 0.0 | 0.0 | 0.00 | 0.00 | 0.00 | 19 | 1012.6 |
| 20260905034522 | 13 | 86 | 0.0 | 0.0 | 0.00 | 0.00 | 0.00 | 19 | 1012.6 |
| 20260905033029 | 13 | 86 | 0.0 | 0.0 | 0.00 | 0.00 | 0.00 | 23 | 1012.5 |
| 20260905031513 | 13 | 86 | 0.0 | 0.0 | 0.00 | 0.00 | 0.00 | 27 | 1012.3 |
| 20260905030033 | 13 | 86 | 0.0 | 0.0 | 0.00 | 0.00 | 0.00 | 33 | 1012.1 |
| 20260905024602 | 14 | 86 | 0.0 | 0.0 | 0.00 | 0.00 | 0.00 | 42 | 1011.9 |
| 20260905023054 | 15 | 86 | 0.0 | 0.0 | 0.00 | 0.00 | 0.00 | 51 | 1011.8 |
| 20260905021554 | 15 | 86 | 0.0 | 0.0 | 0.00 | 0.00 | 0.00 | 56 | 1011.8 |
| 20260905020044 | 16 | 86 | 0.0 | 0.0 | 0.00 | 0.00 | 0.00 | 62 | 1011.9 |
| 20260905014539 | 16 | 86 | 0.0 | 0.0 | 0.00 | 0.00 | 0.00 | 63 | 1011.8 |
| 20260905013035 | 16 | 86 | 0.0 | 0.0 | 0.00 | 0.00 | 0.00 | 63 | 1011.7 |
| 20260905011536 | 16 | 86 | 0.0 | 0.0 | 0.00 | 0.00 | 0.00 | 62 | 1011.6 |
| 20260905010026 | 16 | 86 | 0.0 | 0.0 | 0.00 | 0.00 | 0.00 | 63 | 1011.5 |
| 20260905004535 | 16 | 86 | 0.0 | 0.0 | 0.00 | 0.00 | 0.00 | 63 | 1011.4 |
| 20260905003028 | 17 | 86 | 0.0 | 0.0 | 0.00 | 0.00 | 0.00 | 63 | 1011.2 |
| 20260905001539 | 17 | 86 | 0.0 | 1.6 | 0.00 | 0.00 | 0.00 | 63 | 1011.2 |
| 20260905000009 | 17 | 86 | 0.0 | 0.0 | 0.00 | 0.00 | 0.00 | 63 | 1011.1 |
| 20260904234514 | 17 | 86 | 0.0 | 0.0 | 0.00 | 0.03 | 0.00 | 63 | 1011.0 |
| 20260904233120 | 17 | 86 | 0.0 | 0.0 | 0.00 | 0.03 | 0.00 | 63 | 1011.0 |
| 20260904231605 | 18 | 86 | 0.0 | 1.6 | 0.00 | 0.03 | 0.00 | 63 | 1010.8 |
| 20260904230052 | 18 | 86 | 0.0 | 1.6 | 0.00 | 0.03 | 0.00 | 62 | 1010.9 |
| 20260904224555 | 19 | 87 | 0.0 | 1.6 | 0.00 | 0.03 | 0.00 | 62 | 1010.7 |
| 20260904223056 | 20 | 349 | 0.0 | 1.6 | 0.00 | 0.03 | 0.00 | 60 | 1010.7 |
| 20260904221539 | 20 | 336 | 0.0 | 1.6 | 0.00 | 0.03 | 0.00 | 59 | 1010.7 |
| 20260904220034 | 21 | 211 | 0.0 | 1.6 | 0.00 | 0.03 | 0.00 | 57 | 1010.9 |
| 20260904214529 | 19 | 207 | 0.0 | 3.2 | 0.00 | 0.03 | 0.00 | 62 | 1010.8 |
| 20260904213027 | 18 | 44 | 0.0 | 1.6 | 0.00 | 0.03 | 0.00 | 63 | 1010.8 |
| 20260904211520 | 18 | 198 | 0.0 | 4.8 | 0.00 | 0.03 | 0.00 | 61 | 1010.8 |
| 20260904210015 | 19 | 234 | 0.0 | 1.6 | 0.00 | 0.03 | 0.00 | 63 | 1010.8 |
| 20260904204511 | 18 | 131 | 0.0 | 1.6 | 0.00 | 0.03 | 0.00 | 62 | 1010.8 |
| 20260904203007 | 18 | 136 | 0.0 | 1.6 | 0.00 | 0.03 | 0.00 | 62 | 1010.8 |
| 20260904201502 | 17 | 139 | 0.0 | 1.6 | 0.00 | 0.03 | 0.00 | 62 | 1010.8 |
| 20260904194554 | 18 | 11 | 0.0 | 1.6 | 0.00 | 0.03 | 0.00 | 63 | 1010.7 |
| 20260904193106 | 18 | 350 | 0.0 | 1.6 | 0.00 | 0.03 | 0.00 | 62 | 1010.6 |
| 20260904191552 | 18 | 13 | 0.0 | 1.6 | 0.00 | 0.03 | 0.00 | 63 | 1010.5 |
| 20260904190041 | 17 | 73 | 0.0 | 3.2 | 0.00 | 0.03 | 0.00 | 63 | 1010.3 |
| 20260904184536 | 17 | 1 | 0.0 | 1.6 | 0.00 | 0.03 | 0.00 | 60 | 1010.4 |
| 20260904183031 | 16 | 58 | 0.0 | 1.6 | 0.00 | 0.03 | 0.00 | 57 | 1010.3 |
| 20260904181533 | 16 | 58 | 0.0 | 0.0 | 0.00 | 0.03 | 0.00 | 56 | 1010.2 |
| 20260904180023 | 16 | 59 | 0.0 | 1.6 | 0.00 | 0.03 | 0.00 | 58 | 1010.4 |
| 20260904174519 | 15 | 81 | 0.0 | 1.6 | 0.00 | 0.03 | 0.00 | 45 | 1010.3 |
| 20260904173033 | 15 | 82 | 0.0 | 0.0 | 0.00 | 0.03 | 0.00 | 32 | 1010.3 |
| 20260904171512 | 14 | 82 | 0.0 | 0.0 | 0.00 | 0.03 | 0.00 | 29 | 1010.2 |
| 20260904170007 | 14 | 82 | 0.0 | 0.0 | 0.00 | 0.03 | 0.00 | 21 | 1010.2 |
| 20260904164600 | 13 | 81 | 0.0 | 0.0 | 0.00 | 0.03 | 0.00 | 12 | 1010.3 |
| 20260904164501 | 13 | 81 | 0.0 | 0.0 | 0.00 | 0.03 | 0.00 | 10 | 1010.2 |
| 20260904163056 | 13 | 81 | 0.0 | 0.0 | 0.00 | 0.03 | 0.00 | 1 | 1010.3 |
| 20260904161600 | 13 | 81 | 0.0 | 0.0 | 0.00 | 0.03 | 0.00 | 1 | 1010.0 |
| 20260904160057 | 12 | 81 | 0.0 | 0.0 | 0.00 | 0.03 | 0.00 | 1 | 1009.9 |
| 20260904154543 | 11 | 80 | 0.0 | 0.0 | 0.00 | 0.03 | 0.00 | 1 | 1009.9 |
| 20260904153039 | 11 | 80 | 0.0 | 0.0 | 0.00 | 0.03 | 0.00 | 1 | 1009.9 |
| 20260904151539 | 11 | 79 | 0.0 | 0.0 | 0.00 | 0.03 | 0.00 | 1 | 1009.8 |
| 20260904150035 | 10 | 79 | 0.0 | 0.0 | 0.00 | 0.03 | 0.00 | 1 | 1009.7 |
| 20260904144525 | 10 | 79 | 0.0 | 0.0 | 0.00 | 0.03 | 0.00 | 1 | 1009.8 |
| 20260904143022 | -17 | 0.0 | 0.0 | 0.00 | 0.03 | 0.00 | 1009.6 | ||
| 20260904141517 | -17 | 0.0 | 0.0 | 0.00 | 0.03 | 0.00 | 1009.4 | ||
| 20260904140013 | -17 | 0.0 | 0.0 | 0.00 | 0.03 | 0.00 | 1009.1 | ||
| 20260904134508 | -17 | 0.0 | 0.0 | 0.00 | 0.03 | 0.00 | 1008.8 | ||
| 20260904133005 | -17 | 0.0 | 0.0 | 0.00 | 0.03 | 0.00 | 1008.6 | ||
| 20260904131603 | -17 | 0.0 | 0.0 | 0.00 | 0.03 | 0.00 | 1008.6 | ||
| 20260904130058 | -17 | 0.0 | 0.0 | 0.00 | 0.03 | 0.00 | 1008.4 | ||
| 20260904124602 | -17 | 0.0 | 0.0 | 0.00 | 0.03 | 0.00 | 1008.3 | ||
| 20260904123047 | -17 | 0.0 | 0.0 | 0.00 | 0.03 | 0.00 | 1008.3 | ||
| 20260904121542 | -17 | 0.0 | 0.0 | 0.00 | 0.03 | 0.00 | 1008.2 | ||
| 20260904120037 | -17 | 0.0 | 0.0 | 0.00 | 0.03 | 0.00 | 1008.3 | ||
| 20260904114533 | 8 | 79 | 0.0 | 0.0 | 0.00 | 0.03 | 0.00 | 1 | 1008.1 |
| 20260904113029 | 9 | 79 | 0.0 | 0.0 | 0.00 | 0.03 | 0.00 | 1 | 1007.9 |
| 20260904111524 | 9 | 79 | 0.0 | 0.0 | 0.00 | 0.03 | 0.00 | 1 | 1007.8 |
| 20260904110020 | 9 | 79 | 0.0 | 0.0 | 0.00 | 0.03 | 0.00 | 1 | 1007.7 |
| 20260904104517 | 9 | 79 | 0.0 | 0.0 | 0.00 | 0.03 | 0.00 | 1 | 1007.7 |
| 20260904103012 | 9 | 79 | 0.0 | 0.0 | 0.00 | 0.03 | 0.00 | 1 | 1007.6 |
| 20260904101508 | 9 | 79 | 0.0 | 0.0 | 0.00 | 0.03 | 0.00 | 1 | 1007.5 |
| 20260904100121 | 9 | 79 | 0.0 | 0.0 | 0.00 | 0.03 | 0.00 | 1 | 1007.5 |
| 20260904094554 | 9 | 79 | 0.0 | 0.0 | 0.00 | 0.03 | 0.00 | 1 | 1007.5 |
| 20260904093054 | 9 | 79 | 0.0 | 0.0 | 0.00 | 0.03 | 0.00 | 1 | 1007.6 |
| 20260904091553 | 9 | 79 | 0.0 | 0.0 | 0.00 | 0.03 | 0.00 | 1 | 1007.5 |
| 20260904090041 | 9 | 79 | 0.0 | 0.0 | 0.00 | 0.03 | 0.00 | 1 | 1007.6 |
| 20260904084537 | 9 | 79 | 0.0 | 0.0 | 0.00 | 0.03 | 0.00 | 1 | 1007.5 |
| 20260904083036 | 10 | 79 | 0.0 | 0.0 | 0.00 | 0.03 | 0.00 | 1 | 1007.6 |
| 20260904081528 | 10 | 79 | 0.0 | 0.0 | 0.00 | 0.03 | 0.00 | 1 | 1007.7 |
| 20260904080023 | 10 | 79 | 0.0 | 0.0 | 0.00 | 0.03 | 0.00 | 1 | 1007.8 |
| 20260904074530 | 10 | 79 | 0.0 | 0.0 | 0.00 | 0.03 | 0.00 | 1 | 1007.8 |
| 20260904073019 | 10 | 79 | 0.0 | 0.0 | 0.00 | 0.03 | 0.00 | 1 | 1007.7 |
| 20260904071511 | 10 | 79 | 0.0 | 0.0 | 0.00 | 0.03 | 0.00 | 1 | 1007.6 |
| 20260904070008 | 10 | 79 | 0.0 | 0.0 | 0.00 | 0.03 | 0.00 | 1 | 1007.6 |
| 20260904064501 | 10 | 79 | 0.0 | 0.0 | 0.00 | 0.03 | 0.03 | 1 | 1007.5 |
| 20260904063059 | 10 | 79 | 0.0 | 0.0 | 0.00 | 0.03 | 0.03 | 1 | 1007.5 |